Weather History for KDRA - August, 2013

Change the Weather History Date:

Wednesday, August 7, 2013

  Actual Average Record
Temperature  
Mean Temperature 84 °F -  
Max Temperature 96 °F 99 °F 108 °F (1997)
Min Temperature 71 °F 69 °F 61 °F (2003)
Cooling Degree Days 18    
Growing Degree Days 34 (Base 50)    
Moisture  
Dew Point 18 °F    
Average Humidity 8    
Maximum Humidity 18    
Minimum Humidity 4    
Precipitation  
Precipitation 0.00 in - - ()
Sea Level Pressure  
Sea Level Pressure 29.81 in    
Wind  
Wind Speed 10 mph (SSW)    
Max Wind Speed 25 mph    
Max Gust Speed 36 mph    
Visibility 10 miles    
Events      
Averages and records for this station are not official NWS values.
T = Trace of Precipitation, MM = Missing Value Source: NWS Daily Summary

Daily Weather History Graph

Daily Weather History Graph

Search for Another Location

Airport or City:

Trip Planner

Search our weather history database for the weather conditions in past years. The results will help you decide how hot, cold, wet, or windy it might be!

Date:

Astronomy

Aug. 07, 2013 Rise Set
Actual Time 5:55 AM PDT 7:43 PM PDT
Civil Twilight 5:27 AM PDT 8:11 PM PDT
Nautical Twilight 4:53 AM PDT 8:45 PM PDT
Astronomical Twilight 4:17 AM PDT 9:21 PM PDT
Moon 6:45 AM PDT (8/7) 7:57 PM PDT (8/7)
Length of Visible Light 14h 44m
Length of Day
13h 48m
New Moon, 1% of the Moon is Illuminated
Aug 7
New Moon
Aug 14
First Quarter
Aug 20
Full
Aug 28
Last Quarter
Sep 5
New

Hourly Weather History & Observations

Time (PDT) Temp. Dew Point Humidity Pressure Visibility Wind Dir Wind Speed Gust Speed Precip Events Conditions
12:52 AM 82.0 °F 19.9 °F 10% 29.79 in 10.0 mi SW 8.1 mph - N/A   Clear
1:52 AM 84.9 °F 21.9 °F 10% 29.78 in 10.0 mi SSW 15.0 mph 24.2 mph N/A   Clear
2:52 AM 82.9 °F 23.0 °F 11% 29.78 in 10.0 mi SSW 15.0 mph 21.9 mph N/A   Clear
3:52 AM 77.0 °F 24.1 °F 14% 29.79 in 10.0 mi Variable 4.6 mph - N/A   Clear
4:52 AM 75.9 °F 25.0 °F 15% 29.80 in 10.0 mi NNW 3.5 mph - N/A   Clear
5:52 AM 73.0 °F 27.0 °F 18% 29.82 in 10.0 mi NNE 6.9 mph - N/A   Clear
6:52 AM 75.0 °F 27.0 °F 17% 29.84 in 10.0 mi NE 5.8 mph - N/A   Clear
7:52 AM 82.0 °F 26.1 °F 13% 29.84 in 10.0 mi NNE 4.6 mph - N/A   Clear
8:52 AM 84.0 °F 26.1 °F 12% 29.85 in 10.0 mi Calm Calm - N/A   Clear
9:52 AM 86.0 °F 23.0 °F 10% 29.84 in 10.0 mi Calm Calm - N/A   Clear
10:52 AM 90.0 °F 21.0 °F 8% 29.83 in 10.0 mi Calm Calm - N/A   Clear
11:25 AM 93.2 °F 14.0 °F 5% 29.99 in 10.0 mi SSW 19.6 mph 28.8 mph N/A   Clear
11:52 AM 93.0 °F 16.0 °F 6% 29.82 in 10.0 mi SW 20.7 mph 28.8 mph N/A   Clear
12:52 PM 95.0 °F 12.9 °F 5% 29.81 in 10.0 mi SSW 25.3 mph 35.7 mph N/A   Clear
1:52 PM 93.9 °F 3.9 °F 4% 29.81 in 10.0 mi SSW 15.0 mph 29.9 mph N/A   Clear
2:52 PM 93.9 °F 3.0 °F 4% 29.79 in 10.0 mi SW 19.6 mph 29.9 mph N/A   Clear
3:52 PM 93.9 °F 6.1 °F 4% 29.79 in 10.0 mi SSW 15.0 mph 24.2 mph N/A   Clear
4:52 PM 93.0 °F 15.1 °F 6% 29.78 in 10.0 mi South 16.1 mph 27.6 mph N/A   Clear
5:52 PM 91.9 °F 16.0 °F 6% 29.77 in 10.0 mi South 18.4 mph 25.3 mph N/A   Clear
6:52 PM 91.0 °F 17.1 °F 7% 29.76 in 10.0 mi South 17.3 mph 25.3 mph N/A   Clear
7:52 PM 87.1 °F 15.1 °F 7% 29.76 in 10.0 mi SSW 19.6 mph 25.3 mph N/A   Clear
8:52 PM 84.0 °F 7.0 °F 5% 29.78 in 10.0 mi SW 16.1 mph 20.7 mph N/A   Clear
9:52 PM 80.1 °F 10.9 °F 7% 29.80 in 10.0 mi Calm Calm - N/A   Clear
10:52 PM 80.1 °F 16.0 °F 9% 29.79 in 10.0 mi South 11.5 mph - N/A   Clear
11:52 PM 78.1 °F 16.0 °F 10% 29.79 in 10.0 mi SSE 8.1 mph 16.1 mph N/A   Clear